Location: Augirein
(42.9320°N, 0.9181°E)
Time: 02:54:25
(UTC+00:00)

ATLAS 5 CENTAUR R/B - Pass Details

Date: 20 June 2021
Orbit: 510 x 1148 km, 63.4° (Epoch: 28 July)

Event Time Altitude Azimuth Distance (km) Brightness Sun altitude
Exits shadow 00:47:52 19° 104° (ESE) 1,330 3.2 -22.6°
Drops below altitude 10° 00:50:25 10° 66° (ENE) 1,867 4.5 -22.5°
Sets 00:53:16 0° 49° (NE) 2,861 5.8 -22.4°
